#timestamp,LO_Frequency,Hit,StdDev 
1512424815.1,286047000.8,N
1512424816.0,286047000.8,N
1512424835.8,286046998.1,N
1512424855.7,286046994.9,N
1512424875.5,286046997.9,N
1512424895.3,286046999.5,N
1512424915.2,286047002.3,N
1512424935.0,286047002.1,N
1512424935.9,286047002.1,N
1512424955.7,286047001.9,N
1512424975.6,286046998.7,N
1512424995.4,286046998.4,N
1512425015.3,286046996.5,N
1512425035.1,286046996.7,N
1512425036.0,286046996.7,N
1512425055.8,286047000.5,N
1512425075.7,286047000.3,N
1512425095.5,286047000.7,N
1512425115.3,286046999.3,N
1512425135.2,286046998.6,N
1512425155.0,286046998.2,N
1512425155.9,286046998.2,N
1512425175.8,286047001.0,N
1512425195.6,286046998.9,N
1512425215.4,286046999.4,N
1512425235.3,286046997.0,N
1512425255.1,286046996.9,N
1512425275.9,286047002.2,N
1512425295.7,286046998.8,N
1512425315.5,286046997.8,N
1512425335.4,286046996.8,N
1512425355.2,286046997.3,N
1512425375.0,286046995.8,N
1512425375.9,286046995.8,N
1512425395.8,286046999.6,N
1512425415.6,286047001.0,N
1512425435.5,286046998.5,N
1512425455.3,286047000.1,N
1512425475.1,286047000.0,N
1512425495.9,286047001.0,N
1512425515.7,286047001.6,N
1512425535.5,286047001.8,N
1512425555.4,286047002.1,N
1512425575.2,286047002.4,N
1512425595.1,286047000.5,N
1512425596.0,286047000.5,N
1512425615.8,286047002.4,N
1512425635.6,286046999.8,N
1512425655.5,286047002.5,N
1512425675.3,286047001.6,N
1512425695.1,286046999.9,N
1512425715.9,286046998.6,N
1512425735.7,286047002.5,N
1512425755.6,286047002.1,N
1512425775.4,286047000.5,N
1512425795.2,286047000.9,N
1512425815.1,286046999.9,N
1512425816.0,286046999.9,N
1512425835.8,286047002.4,N
1512425855.7,286046998.2,N
1512425875.5,286046995.4,N
1512425895.3,286046997.9,N
1512425915.2,286046997.0,N
1512425935.0,286047002.1,N
1512425935.9,286047002.1,N
1512425955.7,286047000.1,N
1512425975.6,286047000.3,N
1512425995.4,286047002.6,N
1512426015.3,286047000.8,N
1512426035.1,286046998.1,N
1512426036.0,286046998.1,N
1512426055.8,286047000.3,N
1512426075.7,286047002.8,N
1512426095.5,286047000.6,N
1512426115.3,286047000.3,N
1512426135.2,286047000.3,N
1512426155.0,286047002.7,N
1512426155.9,286047002.7,N
1512426175.8,286047003.7,N
1512426195.6,286047003.5,N
1512426215.4,286047003.8,N
1512426235.3,286047003.0,N
1512426255.1,286047003.0,N
1512426275.9,286047001.5,N
1512426295.7,286047003.1,N
1512426315.5,286047002.7,N
1512426335.4,286047001.2,N
1512426355.2,286046999.0,N
1512426375.0,286046996.1,N
1512426375.9,286046996.1,N
1512426395.8,286046997.4,N
1512426415.6,286046998.7,N
1512426435.5,286046998.9,N
1512426455.3,286047000.6,N
1512426475.1,286046999.6,N
1512426495.9,286046996.7,N
1512426515.7,286047000.4,N
1512426535.6,286047002.0,N
1512426555.4,286047002.1,N
1512426575.2,286047000.9,N
1512426595.1,286046998.9,N
1512426596.0,286046998.9,N
1512426615.8,286046999.2,N
1512426635.6,286046997.0,N
1512426655.5,286047000.8,N
1512426675.3,286046999.9,N
1512426695.2,286047002.1,N
1512426715.9,286047001.5,N
1512426735.7,286047000.3,N
1512426755.6,286047002.8,N
1512426775.4,286047001.4,N
1512426795.2,286047004.1,N
1512426815.1,286047000.6,N
1512426816.0,286047000.6,N
1512426835.8,286047000.8,N
1512426855.7,286046998.6,N
1512426875.5,286047000.9,N
1512426895.3,286047002.3,N
1512426915.2,286047001.7,N
1512426935.0,286047004.1,N
1512426935.9,286047004.1,N
1512426955.8,286047003.3,N
1512426975.6,286047005.1,N
1512426995.4,286047001.5,N
1512427015.3,286047001.5,N
1512427035.1,286047003.8,N
1512427055.9,286047002.0,N
1512427075.7,286047003.6,N
1512427095.5,286046999.8,N
1512427115.4,286047000.7,N
1512427135.2,286047000.5,N
1512427155.0,286047004.4,N
1512427155.9,286047004.4,N
1512427175.8,286047005.6,Y
1512427195.6,286047002.1,P
1512427215.5,286047003.5,P
1512427235.3,286047005.2,P
1512427255.1,286047005.1,Y
1512427275.9,286047002.0,P
1512427295.7,286047003.7,P
1512427315.5,286047001.9,N
1512427335.4,286047000.9,N
1512427355.2,286047001.5,N
1512427375.1,286047002.0,N
1512427376.0,286047002.0,N
1512427395.8,286047003.7,Y
1512427415.6,286047000.1,P
1512427435.5,286046999.6,N
1512427455.3,286046996.7,P
1512427475.2,286046997.3,N
1512427495.9,286046999.5,N
1512427515.7,286046999.1,N
1512427535.6,286047001.2,N
1512427555.4,286046996.6,N
1512427575.2,286046998.0,N
1512427595.1,286046996.5,N
1512427596.0,286046996.5,N
1512427615.8,286046999.6,N
1512427635.7,286046996.7,N
1512427655.5,286046997.5,N
1512427675.3,286046996.8,N
1512427695.2,286046995.8,N
1512427715.0,286046995.1,N
1512427715.9,286046995.1,N
1512427735.7,286046999.4,N
1512427755.6,286047001.2,N
1512427775.4,286046996.6,N
1512427795.3,286046995.8,N
1512427815.1,286046996.1,N
1512427816.0,286046996.1,N
1512427835.8,286046995.8,N
1512427855.7,286046995.5,N
1512427875.5,286046993.7,Y
1512427895.4,286046996.8,P
1512427915.2,286046998.6,P
1512427935.0,286047000.7,N
1512427935.9,286047000.7,N
1512427955.8,286047001.3,N
1512427975.6,286047001.9,N
1512427995.4,286047003.9,N
1512428015.3,286047003.6,N
1512428035.1,286047004.2,N
1512428055.9,286047001.8,N
1512428075.7,286047001.3,N
1512428095.5,286047004.2,N
1512428115.4,286047003.5,N
1512428135.2,286047003.3,N
1512428155.0,286047002.9,N
1512428155.9,286047002.9,N
1512428175.8,286047004.2,N
1512428195.6,286047002.6,N
1512428215.5,286047002.5,N
1512428235.3,286047000.2,N
1512428255.1,286047003.9,N
1512428275.9,286047005.6,N
1512428295.7,286047004.2,N
1512428315.6,286047001.0,N
1512428335.4,286046997.0,N
1512428355.2,286046996.6,N
1512428375.1,286046997.1,N
1512428376.0,286046997.1,N
1512428395.8,286046997.1,N
